SCP
0 0 0 0 0 0 0 0 0 0 0 0 0 0 0 0 0 0 0 0 0 0 0 -0 -0 -0 -0 0 0 0 0 0 0 0 0 0 0 0 0 0 0 0 0
0 0 0 0 0 0 0 0 0 0 0 0 0 0 0 0 0 0 0 0 0 0 0 0 0 0 0 0 0 0 0 0 0 0 0 0 0 0 0 0 0 0 0
0 0 0 0 0 0 0 0 0 0 0 0 0 0 0 0 0 0 0 0 0 0 0 0 0 0 0 0 0 0 0 0 0 0 0 0 0 0 0 0 0 0 0
0 0 0 0 0 0 0 0 0 0 0 0 0 0 0 0 0 0 0 0 0 0 0 0 0 0 0 0 0 0 0 0 0 0 0 0 0 0 0 0 0 0 0
0 0 0 0 0 0 0 0 0 0 0 0 0 0 0 0 0 0 0 0 0 0 0 0 0 0 0 0 0 0 0 0 0 0 0 0 0 0 0 0 0 0 0
0 0 0 0 0 0 0 0 0 0 0 0 0 0 0 0 0 0 0 0 0 0 0 0 0 0 0 0 0 0 0 0 0 0 0 0 0 0 0 0 0 0 0
0 0 0 0 0 0 0 0 0 0 0 0 0 0 0 0 0 0 0 0 0 0 0 0 0 0 0 0 0 0 0 0 0 0 0 0 0 0 0 0 0 0 0
0 0 0 0 0 0 0 0 0 0 0 0 0 0 0 0 0 0 0 0 0 0 0 0 0 0 0 0 0 0 0 0 0 0 0 0 0 0 0 0 0 0 0
0 0 0 0 0 0 0 1 1 1 0 0 0 0 0 0 0 0 0 0 0 0 0 0 0 0 0 0 0 0 0 0 0 0 0 0 0 0 0 0 0 0 0
0 0 0 0 0 1 1 1 1 1 1 1 0 0 0 0 0 0 0 0 0 0 -0 -0 -0 -0 -0 -0 -0 0 0 0 0 0 0 0 0 0 0 0 0 0 0
0 0 0 0 1 1 1 1 1 1 1 1 1 0 0 0 0 0 0 0 0 -0 -0 -0 -0 -0 -0 -0 -0 -0 -0 0 0 0 0 0 0 0 0 0 0 0 0
0 0 0 0 1 1 1 1 1 1 1 1 1 1 1 0 0 0 0 0 0 -0 -0 -0 -0 -0 -0 -0 -0 -0 0 0 0 0 0 0 0 0 0 0 0 0 0
0 0 0 0 1 1 1 1 1 1 1 1 1 1 1 1 1 0 0 0 0 0 0 0 0 0 0 0 0 0 0 0 0 0 0 0 0 0 0 0 0 0 0
0 0 0 0 0 1 1 1 1 1 1 1 1 1 1 1 1 1 1 1 0 0 0 0 0 0 0 0 0 0 0 0 0 0 0 0 0 0 0 0 0 0 0
0 0 0 0 0 1 1 1 1 1 1 1 1 1 1 1 1 1 1 1 1 1 1 1 1 1 1 1 1 0 0 0 0 0 0 0 0 0 0 0 0 0 0
0 0 0 0 1 1 1 1 1 1 1 1 1 1 1 1 1 1 1 1 1 1 1 1 1 1 1 1 1 1 0 0 0 0 0 0 0 0 0 0 0 0 0
1 1 1 1 1 1 1 1 1 1 1 1 1 1 1 1 1 1 1 1 1 1 1 1 1 1 1 1 1 1 1 1 0 0 0 0 0 0 0 0 0 0 0
1 1 1 1 1 1 1 1 1 1 1 1 1 1 1 1 1 1 1 1 1 1 1 1 1 1 1 1 1 1 1 1 1 1 1 1 1 1 0 0 0 0 0
1 1 1 1 1 1 1 1 1 1 1 1 1 1 1 1 1 2 3 2 1 1 1 1 1 1 1 1 1 1 1 1 1 1 1 1 1 1 1 1 1 1 1
1 1 1 1 1 1 1 1 1 1 1 1 1 1 1 1 1 3 5 3 1 2 2 2 2 2 1 1 1 1 1 1 1 1 1 1 1 1 1 1 1 1 1
1 1 0 0 0 1 1 1 1 1 1 1 1 1 1 1 1 2 3 2 1 2 2 2 2 2 1 1 1 1 1 1 1 1 1 1 1 1 1 1 1 1 1
0 0 0 0 0 0 1 1 1 1 1 1 1 1 1 1 1 1 1 1 1 1 1 1 1 1 1 1 1 1 1 1 0 0 0 0 0 0 0 1 1 1 1
0 -0 -0 0 0 0 0 1 1 0 0 0 0 0 0 0 0 0 1 1 1 1 1 1 1 1 1 1 1 1 1 1 0 0 0 0 0 0 0 0 0 1 1
-0 -0 0 0 0 0 0 0 0 0 0 0 0 0 0 0 0 0 0 0 1 1 1 1 1 1 1 1 1 1 1 1 0 0 0 0 0 0 0 0 0 0 0
-0 0 0 0 0 0 0 0 0 0 0 0 0 0 0 0 0 0 0 0 0 0 1 1 1 1 1 1 1 1 1 1 1 0 0 0 0 0 0 0 0 0 0
0 0 0 0 0 0 0 0 0 0 0 0 0 0 0 0 0 0 0 0 0 0 0 0 1 1 1 1 1 1 1 1 1 0 0 0 0 0 0 0 0 0 0
Wind_Speed
7 9 18 18 17 16 16 15 15 16 16 16 16 15 15 14 13 12 11 10 9 8 8 7 7 7 8 8 8 9 10 10 10 10 11 11 10 10 10 10 10 8 12
11 12 19 18 18 17 16 16 15 15 15 15 15 15 14 13 12 11 10 10 9 9 8 7 7 7 7 7 7 8 9 8 8 9 10 9 9 9 10 10 9 7 11
13 12 15 18 18 17 16 16 15 15 15 15 14 13 13 12 11 11 10 9 9 8 8 7 7 7 7 7 7 7 7 7 7 7 7 4 5 7 8 9 10 10 11
13 10 11 18 18 17 16 16 15 15 15 14 13 13 12 11 10 10 9 8 8 8 8 7 7 7 7 6 6 6 6 6 6 6 3 3 3 5 6 9 10 11 11
11 9 12 19 18 17 16 16 15 15 14 14 13 12 11 10 9 9 8 8 7 7 7 7 7 7 7 7 7 6 6 6 6 4 2 2 2 4 7 9 10 11 11
10 9 12 19 18 17 17 16 15 15 14 13 12 11 11 10 9 9 8 8 8 8 8 8 8 8 7 7 7 7 7 7 6 3 3 3 3 6 9 10 12 12 12
11 9 10 19 18 17 16 16 15 14 14 13 12 11 10 10 9 9 9 9 9 9 9 8 8 8 8 8 8 8 8 8 5 4 5 5 6 9 11 13 14 14 14
12 9 9 18 18 17 16 15 15 14 13 12 12 11 10 10 10 10 9 10 10 10 10 10 9 9 9 9 9 9 9 10 7 6 6 6 8 10 12 13 15 16 16
9 9 7 9 12 16 15 14 14 13 12 12 11 11 10 10 10 10 10 10 11 11 11 11 11 11 11 10 10 11 11 11 8 5 6 6 9 12 13 13 15 17 17
7 8 7 7 7 7 8 14 14 13 12 12 12 11 11 11 11 11 10 11 12 12 12 13 13 12 12 11 12 12 12 11 8 8 6 7 12 13 14 14 15 17 18
9 8 7 7 6 6 6 10 12 13 13 12 10 13 11 5 5 6 9 12 14 14 14 14 14 13 12 12 13 13 12 6 8 7 6 11 14 15 16 16 16 16 18
12 12 8 8 7 6 7 6 5 5 5 6 5 5 4 4 4 7 8 14 15 15 15 15 15 14 11 6 9 12 6 8 8 7 8 14 15 16 16 17 16 16 17
10 10 9 9 7 7 4 3 3 3 3 5 6 6 4 4 4 5 4 7 8 11 8 9 9 6 7 6 6 6 8 8 6 7 9 15 15 16 17 17 16 16 17
7 9 8 8 7 7 5 3 3 3 3 4 5 6 5 4 5 5 5 5 5 5 6 6 5 7 8 9 9 9 10 7 7 6 8 16 16 17 17 17 16 16 16
7 8 8 7 8 7 6 4 4 4 5 5 4 5 7 6 6 6 6 5 6 6 6 7 7 8 9 9 9 10 10 10 10 9 7 14 16 16 17 17 16 16 15
8 8 6 7 7 6 6 5 4 4 4 4 5 6 7 7 7 6 7 6 7 6 7 7 7 7 7 6 8 9 9 9 8 9 8 10 15 16 16 17 18 17 16
7 7 7 7 6 7 7 7 5 5 4 5 6 7 8 8 9 8 7 7 7 6 7 6 7 5 5 5 7 8 8 8 8 9 9 7 8 12 15 16 17 17 17
7 7 7 7 8 8 7 6 4 4 5 5 6 7 10 10 10 9 8 9 8 6 6 6 5 5 5 5 5 6 6 6 9 9 9 8 7 8 10 15 15 16 17
7 7 6 5 6 7 7 6 5 5 6 6 6 6 8 10 11 9 9 9 8 7 7 7 6 6 6 6 5 6 6 6 8 9 9 10 9 9 8 10 14 16 18
7 6 6 5 5 5 4 3 3 4 4 4 4 5 7 6 8 7 7 9 7 6 7 7 8 7 6 6 7 7 7 7 6 8 10 9 9 11 10 10 8 10 16
6 6 6 6 5 3 2 2 2 3 3 3 3 4 5 5 5 5 5 6 5 6 8 8 7 7 7 5 4 5 6 8 9 9 9 9 10 10 9 9 8 8 7
7 7 6 5 4 4 2 1 1 1 2 3 3 4 4 5 5 4 5 5 5 5 6 7 6 4 5 6 5 4 4 4 6 9 8 8 9 7 9 9 8 9 8
5 6 5 5 4 3 2 1 1 1 2 2 3 3 4 5 6 5 6 5 5 5 5 7 7 7 6 5 6 6 5 6 3 3 6 6 6 6 7 6 8 8 9
5 3 3 4 3 2 2 2 2 1 2 3 2 3 6 6 6 6 6 6 6 5 6 7 6 6 7 6 5 7 7 4 4 3 3 3 5 6 6 6 6 6 6
3 2 3 3 3 2 3 3 3 3 3 3 3 5 5 5 6 6 6 6 6 5 7 7 6 7 6 7 5 4 6 6 6 6 4 3 2 3 4 4 4 3 3
3 3 3 4 4 3 4 4 4 4 4 4 5 5 5 4 5 6 7 6 7 6 7 7 7 8 7 8 6 5 5 4 5 6 6 4 3 2 1 1 2 1 1
Wind_Direction
165 163 163 159 155 149 143 139 136 133 132 133 134 135 136 137 138 138 137 136 134 132 128 124 121 120 121 120 119 118 121 124 128 130 129 128 129 129 126 125 125 126 127
151 159 163 161 157 152 148 145 143 141 139 139 140 140 141 142 142 142 141 141 142 140 136 134 132 130 130 129 128 127 129 132 137 140 139 136 137 139 140 138 137 141 137
146 158 162 162 159 156 154 152 150 148 147 146 145 145 145 146 147 148 148 149 149 148 146 146 146 145 143 142 139 138 138 142 148 152 143 130 143 152 160 155 154 152 148
148 154 159 164 162 160 160 159 157 156 154 153 153 153 153 153 154 156 157 159 160 161 160 161 163 163 162 161 159 156 156 158 164 163 143 164 182 172 174 171 168 166 162
147 152 165 165 166 165 166 166 165 163 162 162 162 163 164 166 168 170 172 175 178 179 179 180 180 180 182 183 183 183 184 187 193 186 175 203 230 215 196 185 183 182 177
152 155 170 168 170 171 171 172 172 171 170 171 172 175 177 180 184 188 190 195 199 201 202 201 200 200 202 205 207 207 209 212 215 212 217 229 234 240 227 210 201 197 192
157 160 175 172 175 176 177 177 177 178 179 180 183 186 191 195 200 205 208 211 214 217 219 220 220 220 221 223 227 229 230 233 224 220 231 239 242 245 243 229 218 210 204
160 162 174 177 179 181 182 183 183 184 186 189 193 197 203 209 215 220 223 226 228 230 232 234 235 236 238 239 240 242 242 245 245 233 233 238 244 247 248 241 228 218 213
158 160 172 178 183 187 189 190 191 192 194 198 203 209 215 221 226 232 236 239 240 241 243 245 247 248 248 248 248 248 249 249 248 241 244 240 246 251 253 251 236 222 218
158 166 170 172 175 181 191 199 199 201 203 207 213 219 225 231 236 241 243 248 252 252 252 253 255 256 256 253 254 254 255 257 254 249 248 248 250 253 255 256 246 230 223
176 180 177 176 176 176 184 203 204 209 211 214 220 227 230 233 243 253 253 252 255 258 259 260 260 261 261 259 258 259 260 253 254 255 252 253 255 256 257 256 251 238 228
188 191 190 188 184 180 194 201 202 205 208 210 208 223 226 219 228 243 252 257 259 261 262 262 261 261 262 256 259 262 256 255 255 258 257 258 258 259 259 257 253 245 235
189 191 196 197 194 193 201 199 207 210 210 213 214 215 220 227 234 244 245 258 262 265 265 265 263 255 247 244 245 245 248 253 255 258 260 262 261 261 261 259 256 251 243
179 196 196 198 199 204 205 213 218 225 227 229 228 222 220 232 238 239 241 242 242 247 250 252 250 249 248 247 246 247 248 247 249 251 257 262 262 262 264 264 262 259 252
185 192 193 194 201 205 208 218 225 233 239 243 244 236 228 235 242 241 243 241 240 239 241 246 247 248 249 250 249 248 248 247 249 248 253 261 264 264 266 268 268 266 259
190 191 186 191 199 204 214 217 227 236 242 250 247 244 236 237 242 243 245 242 240 237 239 240 243 249 252 253 257 256 254 251 247 246 249 258 262 263 265 267 267 264 261
184 180 184 191 191 205 217 223 227 228 232 241 248 248 242 237 240 241 245 245 241 234 236 240 245 250 256 257 259 262 260 254 252 252 252 250 255 259 260 262 263 261 257
167 175 187 199 196 207 215 223 229 236 237 240 244 248 247 242 239 240 243 245 239 230 229 235 238 246 249 249 255 262 262 259 257 255 253 250 248 252 254 255 256 256 257
159 164 177 195 201 209 214 219 226 233 239 242 243 247 250 249 242 235 241 246 239 232 230 232 224 219 230 239 248 255 255 253 254 256 253 252 248 246 248 252 252 251 254
147 156 168 181 200 201 205 218 234 245 250 251 251 256 261 261 258 246 245 248 243 239 236 228 225 219 217 221 235 245 244 245 248 250 254 255 252 250 248 249 250 251 251
140 158 180 187 194 177 173 193 219 247 261 268 268 272 281 283 280 267 263 262 250 243 241 232 225 225 224 211 222 249 252 246 249 250 247 248 251 251 251 249 248 248 249
166 175 185 192 187 185 178 177 195 234 268 274 289 303 304 309 305 296 278 273 265 256 252 242 229 226 225 202 207 224 255 262 240 240 239 242 247 250 252 252 248 245 244
192 193 187 191 192 194 176 121 39 357 331 318 311 306 310 314 308 302 295 286 276 262 259 251 238 232 238 225 209 209 217 233 245 250 239 240 240 241 246 251 252 251 245
225 216 203 199 199 194 163 167 192 230 265 268 282 290 301 303 304 303 299 293 283 270 263 259 247 235 237 240 223 219 226 215 218 258 249 241 241 244 247 251 255 254 251
240 222 217 210 213 201 184 194 209 236 248 276 291 296 302 304 303 302 300 296 288 278 270 265 257 243 235 237 227 215 224 227 222 232 254 251 254 251 251 255 257 260 269
251 222 212 211 224 213 204 205 211 235 258 285 300 306 307 305 302 301 302 297 291 282 275 267 257 249 242 239 233 219 210 209 209 218 235 238 247 261 274 292 284 281 306